Showing default

SGDC, 42692

Orbit data source: Space-Track

SGDC, 42692 is a payload satellite owned by Telebras (BR) in GEO that was launched on Thu, 04 May 2017 UTC via an ARIANE 5ECA launch vehicle from the French Guiana (FRGUI). Payload-class satellites include a variety of spacecraft equipped with specific instruments for various scientific and technological missions. These include communications satellites like Starlink; space stations such as the ISS; scientific satellites like the Hubble; Earth observation satellites from companies like Planet Labs, Umbra, and HawkEye 360; GPS; miniature CubeSats for education and research; and military/defense satellites.

Loading next visibility...
Identifier
42692, 2017-023B
Orbit
GEO
Country
Flag of UnknownUnknown / BRAZ
Related business
Manufacturer
Thales Alenia
Mission
Operational Defense Communications
Bus & Motor
SPACEBUS 4000C4, S400
Mass
5,735 kg wet, ~2,500 kg dry
Launch date (UTC)
2017-05-04 (8 years ago)
Launch vehicle
ARIANE 5ECA
Launch site
French Guiana (FRGUI)
Object type
Payload
Rocket body
Debris
Shape & HBR
Box + 2 Pan, 18.5 m
Radar Cross Section
34.994 m², Large (>1 m²)

Expand to show TLE details & history
Last TLE update: 2 days ago

TLE from 2 days ago
0 SGDC
1 42692U 17023B   25260.21787161 -.00000270  00000-0  00000-0 0  9994
2 42692   0.0208  84.2858 0003032 117.1387 158.5614  1.00271336 30675
Epoch: 2025-09-17T05:13Z
TLE epoch observation values (Epoch: 2025-09-17T05:13:44.107Z)
Latitude
-0.02504°
Longitude
-74.8307°
Altitude
35,798.156 km
Speed
3.074 km/s
True Right ascension
00h 00m 00s
True Declination
0° 01' 30"
Sunlit
Object was in full shadow at epoch
Visualization orbit readout
Latitude
Unknown
Longitude
Unknown
Altitude
Unknown
Speed
Unknown
Apparent Right ascension
Unknown
Apparent Declination
Unknown
Sunlit
N/A
Visualization observer readout
Local Sidereal Time
14:26:32
Azimuth
Unknown
Elevation
Unknown
Doppler factor
Unknown
Orbital elements
Apogee altitude
35,800.576 km
Perigee altitude
35,775.007 km
Semi-major axis
42,165.928 km
Eccentricity
0.0003
Inclination
0.0208°
RAAN
84.2858°
Arg. of periapsis
117.1387°
True anomaly
158.57409°
Mean anomaly
158.5614°
Eccentric anomaly
158.56775°
Mean motion
0.25067 °/min
Orbital period
1,436.16 mins
BSTAR
0
Loading maneuver chart data...
Computing Atmospheric mass density...
Loading historical data...
Loading historical data...
Loading historical data...
Loading historical data...
Loading historical data...
Loading historical data...
Loading historical data...
Other satellites on launch #23 in the year 2017 (2017-05-04 UTC)

Documentation

Showing up to 5 results
|